Flag for Germany Weather past 2 weeks in Crailsheim, Baden-Württemberg, Germany

Now
66 °F

Passing clouds.


Feels Like: 66 °F
Forecast: 54 / 75 °F
Wind: 3 mph from East

Location: Niederstetten

Current Time: Jul 23, 2014 at 11:55:44 PM

Latest Report: Jul 23, 2014 at 10:20 PM


Visibility: N/A

Pressure: 30.01 "Hg

Humidity: 64%

Dew point: 54 °F

Location of CrailsheimLocation

Historic Weather in Crailsheim — Graph

°F

Crailsheim temperature yesterday

Maximum temperature yesterday: 68 °F (at 12:20 PM)
Minimum temperature yesterday: 63 °F (at 6:20 AM)
Average temperature yesterday: 65 °F

Past Weeks' High & Low Weather Summary

 TemperatureHumidityPressure
High88 °F (Jul 19, 3:20 PM)100% (Jul 9, 10:20 PM)30.30 "Hg (Jul 9, 10:20 PM)
Low50 °F (Jul 9, 10:20 PM)25% (Jul 19, 3:20 PM)29.74 "Hg (Jul 9, 4:01 AM)
Average66 °F74%29.97 "Hg
* Reported Jul 8 10:20 PM — Jul 23 10:20 PM, Crailsheim, Weather by CustomWeather, © 2014

Note: Actual official high and low records may vary slightly from our data, if they occured in-between our weather recording intervals... More about our weather records

Advertising

Crailsheim weather history for previous 24 hours

 ConditionsComfort  
Time TempWeatherWind HumidityBarometerVisibility
10:20 PM
Jul 23
66 °FPassing clouds.3 mph64%30.01 "HgN/A
9:20 PM68 °FScattered clouds.5 mph60%29.98 "HgN/A
8:20 PM73 °FScattered clouds.6 mph53%29.98 "HgN/A
7:20 PM75 °FScattered clouds.7 mph50%29.98 "HgN/A
6:20 PM75 °FPartly sunny.5 mph50%29.98 "HgN/A
5:20 PM70 °FScattered clouds.8 mph69%30.01 "HgN/A
4:50 PM81 °FThunderstorms. Scattered clouds.5 mph42%30.01 "HgN/A
4:20 PM75 °FScattered clouds.10 mph47%30.01 "HgN/A
3:20 PM81 °FScattered clouds.13 mph37%30.01 "HgN/A
2:20 PM79 °FPartly sunny.9 mph42%30.04 "HgN/A
1:20 PM79 °FPartly sunny.12 mph42%30.04 "HgN/A
12:20 PM79 °FBroken clouds.17 mph39%30.04 "HgN/A
11:20 AM77 °FPartly sunny.8 mph47%30.04 "HgN/A
10:20 AM73 °FPartly sunny.8 mph57%30.07 "HgN/A
9:20 AM72 °FPartly sunny.8 mph61%30.07 "HgN/A
7:20 AM64 °FPartly sunny.2 mph78%30.04 "HgN/A
6:20 AM59 °FPassing clouds.2 mph88%30.04 "HgN/A
5:20 AM59 °FPassing clouds.2 mph88%30.04 "HgN/A
4:20 AM61 °FPassing clouds.3 mph88%30.04 "HgN/A
3:20 AM63 °FMild.2 mph83%30.04 "HgN/A
2:20 AM63 °FPassing clouds.2 mph83%30.04 "HgN/A
1:20 AM64 °FPassing clouds.3 mph78%30.04 "HgN/A
Weather by CustomWeather, © 2014

See weather overviewHow to use our weather pages